Temperature
25 23 22 23 23 24 25 25 25 26 27 26 25 26 26 27 26 23 21 21 21 21 21 21 21 21 20 19 19 19 19 19 19 19 18 18 18 19 19 19 19 19 18 18
23 22 24 26 27 27 26 25 24 25 26 26 25 24 24 23 24 22 21 20 21 21 21 21 21 20 20 20 20 19 19 19 19 19 19 18 18 18 19 19 19 18 18 18
23 25 28 28 26 26 26 24 24 24 24 24 24 22 22 22 22 21 21 21 22 21 21 21 21 21 21 21 20 20 20 20 19 19 18 18 18 18 18 18 18 18 18 17
26 27 28 27 26 26 24 25 25 24 22 20 22 20 21 21 20 21 21 21 21 21 21 21 21 22 22 21 21 21 20 20 19 19 18 18 17 17 16 16 16 17 17 17
25 26 27 26 27 27 26 25 24 24 22 21 21 20 20 20 20 20 20 21 21 21 21 22 22 22 22 22 21 20 20 20 19 19 18 17 17 16 16 16 16 16 16 16
25 27 27 27 27 27 26 23 21 19 18 19 20 21 20 19 20 19 20 21 22 22 22 23 23 22 22 21 21 20 20 19 19 18 18 17 16 16 16 16 16 16 16 16
24 25 25 26 26 24 23 19 18 19 17 18 20 21 19 20 21 20 20 22 23 23 23 23 23 22 22 21 21 20 20 19 18 18 17 16 16 15 15 15 15 15 15 15
23 22 24 25 25 24 24 20 18 19 18 18 19 20 19 22 22 23 23 24 24 24 23 23 23 22 22 21 20 20 19 19 18 17 17 16 16 15 15 14 14 14 14 14
23 23 25 26 26 24 24 21 19 17 18 18 19 21 22 21 21 21 22 23 23 23 23 23 23 22 22 21 21 20 19 18 18 17 16 16 15 15 14 14 13 13 13 13
24 23 24 25 26 25 23 21 17 18 18 18 19 20 19 20 20 20 20 21 22 23 23 22 22 22 21 21 20 20 19 18 17 16 16 15 15 14 13 13 13 12 12 12
22 21 21 22 23 23 23 23 19 16 16 17 17 18 19 20 20 20 21 22 22 22 22 22 22 22 21 21 20 20 19 18 17 16 15 15 14 14 13 13 12 12 12 12
21 18 18 20 21 23 22 21 18 18 18 16 16 17 19 20 20 20 21 21 21 21 21 21 21 21 21 21 20 20 19 18 17 16 15 15 14 14 13 12 12 12 12 12
20 17 17 18 18 20 21 22 21 18 16 16 16 17 19 18 18 19 20 20 19 19 19 20 20 20 21 20 20 20 19 18 17 16 15 15 14 14 13 13 12 12 12 12
19 17 17 18 18 19 19 21 21 20 17 16 17 18 17 16 16 16 17 17 16 17 17 18 18 19 19 20 20 19 19 18 17 16 15 15 14 14 13 13 12 12 12 12
18 18 19 18 19 20 21 21 22 21 20 18 17 16 16 16 16 16 16 16 15 15 15 16 16 17 17 18 18 19 19 18 17 16 16 15 15 14 14 13 13 12 12 12
18 19 20 19 20 20 20 21 21 21 19 17 16 16 17 17 16 15 14 14 13 13 14 15 16 16 16 16 17 17 18 18 17 16 16 15 14 14 14 13 13 12 12 12
18 18 18 17 18 19 18 19 19 18 17 17 16 16 16 15 14 12 12 12 12 12 13 14 15 15 15 15 15 15 16 17 17 16 16 15 14 14 13 13 13 12 12 11
17 16 15 16 17 18 18 20 18 16 13 14 14 12 12 13 12 10 10 10 11 11 12 12 13 13 14 14 14 14 15 15 16 16 16 15 14 14 13 13 13 12 12 11
17 16 16 15 17 17 19 19 19 16 11 10 9 9 9 10 12 11 11 11 11 11 12 12 12 12 12 13 12 13 13 13 14 14 15 15 14 14 13 13 13 12 11 11
17 16 16 16 16 16 16 16 17 15 10 9 8 8 8 8 8 8 10 11 11 12 11 11 12 11 11 11 11 11 11 12 12 12 12 13 14 14 13 13 13 12 12 11
17 16 16 15 15 16 12 13 15 15 11 8 8 8 8 7 8 9 9 9 9 9 10 10 11 11 11 11 11 10 10 10 10 10 11 12 12 13 13 13 13 12 12 11
16 15 16 15 15 14 10 10 10 8 8 9 9 9 9 9 9 9 9 10 10 10 10 10 10 10 10 10 10 10 10 10 10 10 10 10 11 12 13 13 12 12 12 11
16 15 14 13 12 10 9 9 9 10 10 10 10 10 10 9 9 10 10 10 10 10 10 10 10 10 10 10 9 9 9 9 9 9 9 9 9 11 12 13 12 12 12 12
14 13 11 10 9 10 10 10 11 10 10 10 11 10 10 9 9 9 9 10 10 10 10 10 10 9 9 10 9 9 9 9 9 9 9 8 8 10 11 12 12 12 12 12
10 10 10 8 9 10 10 11 11 11 11 11 11 10 10 9 9 9 9 9 9 9 9 9 9 9 9 9 9 9 9 9 9 8 8 8 8 9 10 11 12 12 12 12
9 8 8 8 9 9 10 11 11 11 11 11 10 10 10 10 10 9 9 9 9 9 9 9 9 9 9 9 9 9 9 9 9 8 8 7 8 8 9 11 12 12 12 12
Wind_Speed
3 1 4 8 9 9 6 3 5 6 9 9 9 6 4 1 7 12 11 10 11 8 4 3 5 5 4 3 2 1 2 3 2 1 1 2 4 4 5 6 6 7 8 8
4 6 14 11 5 4 2 5 6 6 10 9 9 8 9 7 5 14 14 11 10 7 4 2 2 2 2 1 1 2 4 4 4 4 4 4 4 5 5 6 7 8 8 7
9 8 4 1 6 7 4 5 5 4 6 6 7 8 7 6 11 13 12 12 11 11 9 7 5 4 3 3 5 5 6 7 7 6 4 3 3 4 4 6 6 8 7 7
2 3 2 4 6 5 3 2 5 7 7 4 4 2 5 2 7 6 8 9 9 9 9 8 8 8 8 8 8 8 8 8 8 7 5 6 5 6 7 6 7 9 9 10
4 2 2 2 4 4 1 4 7 7 6 6 4 1 5 3 5 5 4 5 7 9 11 11 11 11 10 10 8 7 7 7 7 6 5 4 4 4 5 6 8 9 9 10
5 4 1 1 3 3 4 8 10 7 5 3 5 3 6 5 8 6 4 5 7 9 11 12 12 10 8 6 5 5 4 4 4 3 2 1 1 3 5 7 8 9 9 10
5 5 5 3 3 7 8 7 6 7 6 5 5 2 7 6 7 8 9 10 10 10 10 10 10 9 7 6 6 4 4 4 3 4 4 4 3 2 3 5 8 10 10 11
2 6 5 3 3 4 2 8 6 3 4 7 6 3 6 4 8 10 10 10 10 10 9 9 9 8 7 7 7 5 6 5 5 5 4 4 4 2 2 4 6 9 10 11
1 4 5 7 5 8 4 3 9 7 2 3 6 1 2 5 7 9 10 8 9 9 8 7 6 7 8 8 7 8 8 7 6 5 4 4 3 2 2 4 6 7 8 9
2 3 6 6 4 2 6 8 6 4 1 3 7 5 5 9 11 10 8 8 7 5 4 6 7 8 8 8 7 8 8 7 5 5 5 4 4 2 1 3 6 8 9 9
4 2 7 6 2 4 2 3 5 5 5 5 5 7 7 10 9 8 8 8 6 4 4 5 7 8 8 7 7 8 7 5 5 6 6 5 4 3 2 3 5 6 7 8
4 4 3 8 8 6 6 7 7 4 6 7 5 9 8 2 2 4 5 4 1 3 5 6 7 7 8 8 7 7 7 6 7 7 6 6 5 4 4 4 6 6 7 7
5 6 4 10 10 8 5 3 3 4 4 5 5 7 5 9 10 9 8 5 6 9 11 9 6 6 8 8 7 7 7 8 8 7 7 6 6 6 6 6 6 6 7 7
5 5 6 5 8 7 10 13 13 8 5 7 9 5 6 7 9 10 10 10 10 12 16 17 13 9 8 7 7 7 8 9 9 8 8 8 8 8 7 6 6 6 6 6
6 4 7 9 10 9 12 15 16 15 13 12 4 7 3 3 6 7 8 10 13 14 15 16 15 14 12 9 8 8 9 9 9 8 8 9 8 8 7 6 6 5 5 5
3 5 4 5 7 10 13 14 12 4 4 7 10 5 1 1 6 8 9 10 11 11 11 11 12 13 15 14 12 10 9 9 8 8 9 8 8 8 8 7 6 4 4 3
2 4 2 5 8 8 7 9 6 8 8 4 4 1 3 3 10 10 10 11 11 10 10 11 10 10 11 13 14 14 12 8 7 9 9 9 9 9 8 7 6 5 3 3
7 5 4 1 6 4 6 2 11 13 15 14 11 14 15 11 6 12 15 14 13 13 11 8 7 8 7 9 12 14 14 11 8 8 8 9 10 9 8 8 7 6 4 5
7 8 4 3 2 7 4 4 1 5 7 12 11 14 17 19 9 7 14 12 10 10 10 10 9 7 6 7 9 11 13 13 10 7 7 9 11 11 10 9 8 6 5 5
6 5 5 4 5 7 3 11 13 4 4 7 9 11 12 14 12 11 18 19 18 15 12 11 10 8 6 6 6 8 9 10 12 13 12 8 9 11 12 10 8 6 6 6
6 5 1 5 6 4 8 12 10 4 2 3 5 6 7 4 8 13 17 18 16 16 16 14 13 9 7 6 4 5 6 7 8 12 15 13 9 11 11 9 7 7 7 8
3 4 4 3 4 4 11 7 6 1 2 6 9 10 10 11 14 15 15 15 14 15 16 14 12 9 8 7 4 3 4 5 6 8 12 15 13 11 11 10 9 9 10 10
5 3 1 3 2 3 6 5 4 5 6 8 9 12 12 14 15 15 14 14 14 15 14 12 10 10 10 8 7 7 6 6 5 6 8 11 15 11 9 11 11 9 10 9
7 7 5 5 4 2 3 3 4 7 9 13 15 16 16 17 18 18 17 16 15 16 15 13 11 11 11 10 10 10 9 7 5 6 7 8 12 12 10 10 11 11 11 11
8 8 6 5 4 3 5 7 10 12 15 17 18 18 19 19 20 20 19 19 18 17 16 15 14 14 14 12 11 11 10 9 7 7 7 8 9 11 11 12 12 14 13 14
5 4 3 2 5 5 10 11 15 17 17 19 20 21 20 18 19 20 18 18 19 19 19 18 18 17 15 13 11 11 11 10 8 7 7 8 8 9 9 11 10 14 13 18
Wind_Direction
290 78 255 247 217 211 242 307 345 351 354 44 36 25 20 103 144 131 130 129 124 123 121 90 79 75 70 63 78 178 209 206 188 208 241 255 258 261 271 269 266 273 271 258
340 264 243 242 265 276 335 43 22 1 359 24 22 6 1 16 130 143 141 134 131 131 145 173 117 75 62 39 127 192 210 215 207 206 214 221 239 259 262 271 278 277 275 267
231 247 237 324 344 347 6 87 62 19 2 24 46 358 356 24 96 121 134 141 148 160 175 187 187 208 214 217 208 205 215 217 212 211 220 258 286 296 296 294 292 288 283 277
315 305 45 15 335 1 350 50 47 18 21 317 73 321 309 101 98 126 148 154 160 163 169 175 187 198 203 209 206 203 210 213 216 211 211 227 248 268 274 282 286 292 289 282
308 341 47 351 316 345 277 35 24 349 334 325 335 110 272 123 152 195 194 175 170 173 176 186 197 202 206 204 201 206 211 216 220 217 220 239 263 274 292 307 307 305 300 291
274 296 344 304 332 11 63 32 8 19 49 328 276 196 267 219 204 191 196 192 192 194 196 204 213 213 219 219 216 215 208 219 216 190 158 134 330 337 338 331 325 318 310 300
334 336 339 1 29 14 64 66 21 358 4 278 275 214 258 248 185 172 192 211 218 220 220 227 232 233 238 231 229 226 200 207 185 136 121 113 103 60 349 327 323 317 310 300
307 309 299 299 187 176 134 130 148 205 251 284 310 224 245 231 168 185 199 212 224 235 244 243 238 229 222 216 216 208 200 208 192 164 147 129 116 96 351 328 320 314 309 301
136 277 293 284 239 150 153 154 169 152 275 293 303 326 275 250 214 213 219 231 246 254 252 235 203 183 187 195 201 201 205 213 203 180 149 132 122 88 358 331 325 323 322 319
95 285 300 325 25 55 159 155 93 101 190 291 299 296 238 234 230 228 221 214 218 211 203 177 177 183 192 199 206 206 211 211 200 178 166 163 160 156 282 326 328 326 326 334
88 82 320 352 343 268 210 176 131 141 168 173 265 276 238 228 219 203 199 188 182 188 207 216 215 206 201 202 201 203 209 203 196 191 185 179 182 184 229 294 308 314 321 336
119 107 312 284 277 273 189 188 150 166 237 191 199 264 285 270 104 109 105 117 23 319 298 272 242 215 209 210 207 201 201 203 211 205 194 195 191 193 224 265 288 305 318 330
113 92 11 342 344 356 11 338 240 190 170 201 205 260 356 56 60 61 67 42 7 357 350 336 300 246 232 225 215 203 204 211 216 206 196 193 194 203 225 249 273 296 310 326
106 115 156 208 248 276 296 299 295 276 245 239 220 225 29 39 47 42 39 35 33 26 19 11 359 329 288 251 224 212 215 215 213 204 195 193 199 203 218 238 257 277 298 320
105 169 212 227 248 263 278 285 281 270 252 234 204 122 119 91 80 67 47 40 36 28 24 18 11 359 345 313 276 243 229 221 212 204 199 200 199 200 208 225 241 257 280 303
133 187 231 276 272 281 286 289 284 322 46 105 110 117 217 135 87 65 47 47 40 28 18 11 8 3 354 342 319 289 258 236 214 206 206 198 194 201 207 213 219 234 263 286
224 176 187 284 306 332 323 333 68 61 32 79 108 73 338 45 75 62 43 38 30 16 7 4 2 359 357 352 347 332 303 269 224 211 204 193 194 203 207 201 197 200 200 159
186 145 147 244 11 320 263 39 102 92 47 29 38 20 8 350 84 67 36 13 358 348 340 335 330 330 335 342 345 345 339 315 267 225 204 194 193 202 202 194 191 181 166 158
152 141 137 141 229 267 286 2 354 128 65 30 35 24 13 358 345 11 4 343 320 311 305 297 287 284 304 327 337 344 352 343 321 286 241 206 195 198 198 195 191 177 162 164
44 79 134 176 210 243 305 341 332 91 86 31 31 19 10 13 355 322 318 313 308 306 302 299 298 282 292 306 331 353 355 1 353 339 316 269 206 196 199 194 184 169 162 169
339 345 261 233 240 243 355 330 339 327 341 26 351 321 317 295 251 270 286 292 290 291 294 295 299 285 275 285 316 346 350 352 343 340 340 318 254 207 199 186 175 165 161 160
340 352 320 302 278 292 355 19 52 68 301 276 279 278 279 275 277 280 284 288 291 293 293 294 294 283 278 277 275 288 294 295 320 343 344 330 292 233 204 182 176 169 166 167
29 9 63 55 81 64 52 99 165 204 249 270 280 288 286 282 282 285 286 289 292 292 294 291 282 280 282 279 265 260 257 263 296 325 326 321 310 261 211 186 179 171 172 172
11 16 89 79 89 115 133 175 235 260 274 283 284 284 283 281 282 283 284 285 285 287 288 283 276 278 278 274 260 246 243 244 264 288 296 301 307 279 229 196 182 179 179 177
359 7 49 46 352 300 312 299 287 282 281 282 283 281 280 279 281 282 284 284 283 283 281 280 278 277 275 274 267 256 245 236 241 261 276 280 285 279 240 208 194 188 189 185
4 25 51 268 265 269 282 281 283 286 286 289 292 292 289 284 281 283 283 282 280 278 277 277 277 275 274 272 266 262 249 235 230 244 265 272 277 280 249 216 202 202 189 186
Height
1508 1513 1516 1511 1508 1509 1507 1509 1510 1502 1492 1491 1496 1495 1494 1494 1494 1497 1500 1502 1504 1506 1509 1510 1510 1510 1511 1513 1515 1516 1516 1516 1515 1515 1514 1513 1512 1511 1510 1508 1507 1505 1504 1503
1513 1515 1504 1500 1498 1499 1503 1510 1511 1504 1496 1496 1501 1502 1497 1494 1493 1496 1499 1502 1504 1507 1508 1510 1510 1511 1511 1512 1513 1514 1514 1513 1513 1512 1510 1509 1507 1505 1503 1502 1500 1498 1497 1496
1514 1505 1495 1496 1499 1502 1504 1511 1510 1510 1505 1502 1507 1515 1508 1502 1497 1499 1500 1501 1503 1505 1507 1508 1510 1510 1510 1510 1510 1511 1511 1510 1509 1508 1506 1504 1502 1500 1498 1496 1494 1492 1490 1489
1503 1497 1496 1499 1502 1502 1511 1502 1502 1504 1514 1521 1516 1534 1516 1508 1505 1503 1503 1503 1504 1505 1506 1507 1508 1507 1507 1507 1507 1507 1506 1505 1505 1503 1502 1500 1497 1495 1493 1490 1488 1485 1484 1482
1506 1500 1500 1503 1501 1499 1503 1498 1500 1504 1511 1520 1516 1527 1522 1510 1510 1507 1505 1505 1505 1505 1505 1505 1505 1504 1504 1504 1503 1503 1501 1500 1499 1498 1497 1495 1493 1491 1488 1485 1482 1479 1477 1474
1503 1499 1498 1498 1496 1497 1498 1503 1508 1514 1523 1536 1522 1525 1526 1515 1507 1505 1505 1505 1504 1504 1502 1501 1501 1500 1500 1501 1501 1500 1499 1497 1495 1494 1492 1491 1489 1486 1483 1480 1477 1473 1469 1465
1510 1504 1499 1497 1501 1502 1504 1524 1544 1544 1549 1543 1520 1523 1523 1503 1498 1500 1501 1501 1500 1500 1499 1498 1498 1498 1498 1499 1498 1498 1496 1494 1492 1490 1489 1487 1485 1482 1479 1475 1471 1467 1462 1458
1521 1523 1504 1499 1502 1507 1506 1521 1545 1554 1555 1544 1524 1524 1515 1498 1495 1496 1496 1496 1496 1496 1496 1496 1496 1496 1496 1496 1496 1495 1493 1491 1489 1487 1486 1484 1481 1478 1475 1471 1467 1462 1457 1452
1520 1519 1501 1497 1494 1499 1507 1516 1520 1537 1539 1544 1534 1516 1507 1499 1497 1494 1494 1494 1493 1493 1493 1493 1492 1492 1493 1493 1493 1492 1490 1488 1486 1484 1483 1481 1478 1475 1472 1468 1463 1459 1454 1449
1509 1516 1505 1498 1495 1497 1500 1508 1524 1534 1545 1552 1538 1526 1520 1504 1498 1494 1493 1493 1492 1492 1491 1491 1490 1490 1490 1490 1489 1488 1486 1484 1482 1481 1479 1477 1475 1472 1469 1465 1461 1457 1453 1449
1506 1519 1516 1508 1506 1507 1505 1507 1517 1531 1538 1549 1550 1535 1502 1496 1491 1490 1490 1491 1492 1493 1492 1491 1490 1488 1488 1487 1486 1485 1483 1481 1479 1478 1476 1474 1472 1469 1467 1464 1460 1457 1454 1450
1507 1521 1527 1516 1503 1496 1499 1505 1516 1530 1533 1535 1542 1531 1493 1491 1490 1491 1492 1494 1495 1495 1493 1491 1488 1486 1485 1484 1483 1482 1480 1478 1477 1475 1473 1471 1469 1467 1465 1463 1460 1457 1455 1451
1508 1523 1537 1530 1521 1507 1505 1502 1506 1515 1525 1532 1537 1526 1499 1495 1494 1495 1496 1496 1495 1494 1491 1488 1486 1484 1483 1482 1480 1479 1477 1475 1473 1472 1470 1468 1467 1465 1463 1461 1459 1457 1455 1453
1505 1520 1533 1538 1530 1518 1513 1505 1500 1507 1522 1525 1519 1512 1507 1503 1500 1499 1498 1497 1494 1492 1489 1486 1484 1483 1482 1480 1478 1475 1473 1470 1469 1468 1466 1465 1464 1463 1461 1459 1458 1457 1456 1454
1506 1519 1517 1517 1511 1507 1505 1501 1496 1497 1498 1506 1506 1511 1507 1503 1501 1500 1498 1496 1493 1491 1489 1488 1486 1483 1480 1478 1476 1472 1469 1466 1464 1463 1462 1461 1460 1459 1458 1457 1457 1456 1456 1454
1504 1512 1511 1513 1506 1503 1501 1494 1490 1491 1493 1500 1504 1506 1501 1501 1499 1498 1497 1495 1493 1492 1490 1487 1484 1482 1479 1476 1472 1469 1465 1462 1460 1459 1458 1457 1457 1456 1455 1454 1454 1455 1455 1455
1506 1510 1515 1522 1510 1507 1509 1500 1495 1500 1501 1501 1507 1508 1503 1501 1500 1499 1497 1494 1492 1491 1488 1486 1483 1480 1476 1472 1468 1464 1462 1459 1456 1454 1453 1452 1453 1452 1451 1450 1451 1452 1453 1454
1503 1511 1518 1521 1519 1523 1513 1497 1497 1504 1513 1510 1511 1512 1510 1507 1503 1499 1498 1498 1495 1492 1488 1484 1481 1477 1473 1469 1465 1460 1456 1454 1452 1450 1448 1447 1447 1447 1447 1446 1447 1448 1450 1452
1494 1505 1516 1523 1524 1518 1504 1498 1497 1503 1517 1519 1517 1515 1511 1508 1502 1497 1497 1497 1494 1489 1486 1482 1478 1474 1469 1464 1460 1456 1451 1449 1447 1445 1444 1442 1442 1442 1442 1442 1443 1444 1447 1450
1499 1502 1513 1519 1524 1527 1513 1505 1500 1502 1519 1522 1519 1516 1512 1507 1508 1501 1495 1491 1488 1483 1479 1476 1473 1468 1463 1459 1455 1452 1448 1444 1441 1439 1437 1437 1438 1437 1437 1438 1439 1441 1444 1448
1511 1512 1515 1519 1520 1511 1519 1509 1503 1510 1520 1522 1518 1515 1510 1506 1504 1497 1491 1486 1482 1477 1473 1469 1466 1462 1457 1453 1449 1446 1444 1440 1436 1433 1429 1429 1431 1432 1432 1433 1435 1438 1442 1445
1516 1518 1517 1517 1520 1522 1522 1515 1520 1527 1523 1519 1514 1510 1506 1501 1496 1491 1486 1480 1475 1470 1466 1463 1460 1456 1452 1448 1444 1440 1438 1435 1432 1427 1423 1422 1423 1425 1426 1428 1430 1433 1438 1441
1515 1517 1517 1522 1528 1529 1526 1525 1525 1523 1520 1516 1512 1507 1502 1496 1489 1484 1478 1473 1468 1464 1460 1457 1453 1449 1445 1442 1439 1435 1432 1429 1425 1421 1417 1415 1414 1416 1419 1421 1423 1427 1432 1436
1519 1518 1521 1527 1529 1528 1526 1525 1523 1521 1517 1512 1507 1501 1496 1489 1482 1476 1470 1465 1460 1456 1452 1448 1444 1440 1436 1434 1431 1428 1425 1422 1418 1414 1411 1408 1407 1407 1410 1413 1416 1420 1425 1430
1530 1526 1528 1533 1531 1529 1526 1524 1520 1515 1509 1503 1497 1493 1487 1480 1473 1467 1461 1456 1451 1446 1443 1439 1435 1431 1427 1424 1422 1419 1417 1414 1410 1407 1404 1402 1401 1399 1400 1404 1408 1412 1417 1422
1536 1536 1537 1538 1534 1531 1525 1520 1515 1508 1501 1495 1489 1483 1477 1472 1465 1459 1453 1447 1442 1436 1432 1429 1425 1421 1417 1414 1412 1410 1408 1405 1402 1399 1397 1395 1392 1391 1391 1394 1400 1405 1411 1416